Regional Weather Roundup
Issued by NWS

Home | Current Version | Previous Version | Graphics & Text | Print | Product List | Glossary On
Versions: 1 2 3 4 5 6 7 8 9 10 11 12 13 14 15 16 17 18 19 20 21 22 23 24 25 26 27 28 29 30 31 32 33 34 35 36 37 38 39 40 41 42 43 44 45 46 47 48 49 50
000
ASUS43 KLSX 292310
RWRMO

WEATHER SUMMARY FOR MISSOURI
NATIONAL WEATHER SERVICE SPRINGFIELD MO
600 PM CDT FRI APR 29 2016

NOTE: "FAIR" INDICATES FEW OR NO CLOUDS BELOW 12,000 FEET WITH NO
       SIGNIFICANT WEATHER AND/OR OBSTRUCTIONS TO VISIBILITY.
       CURRENT SKY AND/OR WEATHER CONDITIONS ARE NOT AVAILABLE FOR
       CHILLICOTHE AND FARMINGTON.

MOZ001>031-035>038-043-044-053-054-300000-
...NORTHERN AND WESTERN MISSOURI...

CITY           SKY/WX    TMP DP  RH WIND       PRES   REMARKS
KANSAS CTY INT HVY RAIN  52  50  93 N9        29.97R FOG
KANSAS C DTWN  RAIN      54  50  86 NE6       29.96R FOG
LEE`S SUMMIT   HVY RAIN  53  50  89 NE14      29.92R FOG
ST JOSEPH      RAIN      52  49  89 N9        29.99R FOG
CHILLICOTHE      N/A     54  49  83 NE6       29.98S
KIRKSVILLE     CLOUDY    53  45  74 NE12G18   30.01R

$$
MOZ066>068-077>081-088>096-101>105-300000-
...SOUTHWEST MISSOURI...

CITY           SKY/WX    TMP DP  RH WIND       PRES   REMARKS
SPRINGFIELD    CLOUDY    62  55  77 E16G24    29.80S
JOPLIN         CLOUDY    62  56  80 E10G23    29.73F
BRANSON        LGT RAIN  57  57 100 SE16      29.81S VSB 1/2

$$
MOZ032>034-039>042-045>050-055>058-069>072-300000-
...CENTRAL MISSOURI...

CITY           SKY/WX    TMP DP  RH WIND       PRES   REMARKS
COLUMBIA       CLOUDY    63  52  67 E13       29.91F
JEFFERSON CITY CLOUDY    64  51  62 E12       29.91S
ROLLA          CLOUDY    60  52  74 E13       29.89F
SEDALIA        CLOUDY    62  52  69 E14G22    29.90R
WHITEMAN AFB   CLOUDY    59  53  79 NE8       29.91R
WARRENSBURG    CLOUDY    57  50  77 NE6       29.93R
OSAGE BEACH    CLOUDY    61  46  59 E12       29.88S

$$
MOZ051-052-059>065-300000-
...EAST CENTRAL MISSOURI...

CITY           SKY/WX    TMP DP  RH WIND       PRES   REMARKS
ST LOUIS INTL  PTSUNNY   64  52  64 E10       29.97F
SPIRIT OF STL  PTSUNNY   63  52  67 E12       29.93F
ST CHARLES     CLOUDY    63  54  72 E13       29.95F

$$
MOZ072>076-082>087-097>100-106>115-300000-
...SOUTH CENTRAL AND SOUTHEAST MISSOURI...

CITY           SKY/WX    TMP DP  RH WIND       PRES   REMARKS
CAPE GIRARDEAU CLOUDY    61  57  87 E7        29.94S
FARMINGTON     CLOUDY    61  55  81 E10       29.95F
POPLAR BLUFF   CLOUDY    62  58  86 E7        29.90F
WEST PLAINS    CLOUDY    59  56  89 E9        29.87F

$$




USA.gov is the U.S. government's official web portal to all federal, state and local government web resources and services.